This is the latest recevied weather packets stored in our database for station/object OK1FPA-13. If no packets are shown the sender has not sent any weather packets the latest 10 day(s).
| Time | Temp. | Humidity | Pressure | Rain* | Wind** | Luminosity | Snow |
|---|---|---|---|---|---|---|---|
| 1777559665 | 15.56° C | 27% | 1027.4 hPa | - | - | - | - |
| 1777559065 | 15.56° C | 27% | 1027.5 hPa | - | - | - | - |
| 1777558465 | 15.56° C | 26% | 1027.6 hPa | - | - | - | - |
| 1777557866 | 15.56° C | 26% | 1027.6 hPa | - | - | - | - |
| 1777557265 | 15.56° C | 24% | 1027.7 hPa | - | - | - | - |
| 1777556665 | 15.56° C | 23% | 1027.8 hPa | - | - | - | - |
| 1777556065 | 15.56° C | 23% | 1028 hPa | - | - | - | - |
| 1777555468 | 15.56° C | 25% | 1028 hPa | - | - | - | - |
| 1777554864 | 15° C | 25% | 1028.1 hPa | - | - | - | - |
| 1777554264 | 15° C | 24% | 1028.4 hPa | - | - | - | - |
| 1777553664 | 15° C | 26% | 1028.4 hPa | - | - | - | - |
| 1777553064 | 15° C | 23% | 1028.6 hPa | - | - | - | - |
| 1777552464 | 15.56° C | 24% | 1028.6 hPa | - | - | - | - |
| 1777551864 | 15° C | 25% | 1028.6 hPa | - | - | - | - |
| 1777551264 | 14.44° C | 25% | 1028.8 hPa | - | - | - | - |
| 1777550664 | 14.44° C | 25% | 1028.8 hPa | - | - | - | - |
| 1777550064 | 13.89° C | 26% | 1028.9 hPa | - | - | - | - |
| 1777549464 | 14.44° C | 25% | 1029 hPa | - | - | - | - |
| 1777548864 | 14.44° C | 25% | 1029.1 hPa | - | - | - | - |
| 1777548264 | 13.89° C | 25% | 1029.1 hPa | - | - | - | - |
| 1777547669 | 13.33° C | 25% | 1029.3 hPa | - | - | - | - |
| 1777547064 | 13.33° C | 23% | 1029.4 hPa | - | - | - | - |
| 1777546464 | 13.89° C | 25% | 1029.4 hPa | - | - | - | - |
| 1777545864 | 13.89° C | 27% | 1029.7 hPa | - | - | - | - |
| 1777545265 | 12.78° C | 27% | 1029.8 hPa | - | - | - | - |
* Rain since midnight (hover to see other rain measurements)
** Current wind speed in m/s (hover to see current wind gust speed)